Location: Innerwald
(47.3167°N, 11.5667°E)
Time: 09:58:38
(UTC+00:00)

Daily predictions for brighter satellites

Satellite Brightness Start Highest point End
(mag) Time Altitude Azimuth Time Altitude Azimuth Time Altitude Azimuth
Cosmos 2026 Rocket 4.2 15:46:43 10° N 15:52:40 50° ENE 15:58:31 10° SSE
NOSS 2-2 (D) 4.4 15:48:13 10° NW 15:53:20 77° NE 16:00:35 10° SE
Cosmos 1634 Rocket 4.4 15:48:50 10° SSE 15:54:46 44° E 16:00:42 10° NNE
H-2A R/B 3.0 15:55:12 10° ESE 15:59:16 25° ENE 16:03:16 10° N
Cosmos 2369 3.7 15:54:20 10° NNW 16:00:07 81° ENE 16:05:51 10° SSE
Cosmos 1812 3.9 15:58:43 10° SE 16:01:52 24° E 16:05:01 10° NE
ATLAS CENTAUR R/B 3.9 16:02:19 10° NW 16:03:50 11° NNW 16:05:23 10° N
Cosmos 2221 3.8 16:00:16 10° SSW 16:04:20 42° WNW 16:08:28 10° N
Okean O Rocket 3.2 16:01:59 10° E 16:04:24 15° ENE 16:06:49 10° NNE
USA 308 3.7 16:01:10 10° WNW 16:05:07 35° N 16:09:04 10° ENE
SL-16 R/B 3.1 16:00:34 10° N 16:05:18 26° NE 16:10:00 10° ESE
MOS 1 Rocket 4.4 16:00:59 10° N 16:05:41 45° WNW 16:10:04 10° SW
CZ-2C R/B 2.8 16:01:09 10° SSE 16:05:59 82° ENE 16:10:45 10° NNW
Cosmos 2082 Rocket 2.4 16:02:48 10° S 16:08:20 58° ESE 16:13:54 10° NE
Cosmos 540 Rocket 3.4 16:04:13 10° SSW 16:09:19 84° ESE 16:14:28 10° NNE
Sich 1 3.0 16:05:04 10° N 16:09:20 61° ENE 16:13:37 10° SSE
Cosmos 1500 Rocket 4.1 16:05:00 10° NNW 16:09:23 63° W 16:13:42 10° S
ARGOS 4.3 16:06:28 10° ESE 16:10:28 22° ENE 16:14:27 10° NNE
FengYun 1-2 T 4.2 16:08:13 10° SSE 16:13:45 72° ENE 16:19:16 10° N
COSMOS 2455 2.9 16:08:56 10° SSW 16:14:56 79° ESE 16:21:01 10° NE
SMAP 3.1 16:11:55 10° SSE 16:16:29 58° ENE 16:21:04 10° N
NOAA 6 4.0 16:12:55 10° SSE 16:17:59 62° ENE 16:23:02 10° N
Cosmos 1933 3.5 16:17:30 10° SSW 16:21:33 76° W 16:25:35 10° N
Cosmos 1833 Rocket 3.3 16:16:13 10° SW 16:21:45 58° WNW 16:27:20 10° NNE
Cosmos 1805 Rocket 3.7 16:17:31 10° NNW 16:21:52 79° W 16:26:12 10° S
Cosmos 2278 3.7 16:16:52 10° NNW 16:22:36 71° ENE 16:28:16 10° SE
Cosmos 2333 Rocket 3.9 16:21:25 10° N 16:24:13 14° NNE 16:26:02 12° NE
Cosmos 1602 4.2 16:20:54 10° NNW 16:24:45 67° W 16:28:36 10° S
CZ-4B DEB 4.2 16:21:45 10° SSE 16:27:08 59° ENE 16:32:31 10° N
USA 305 3.4 16:25:36 10° NW 16:29:40 42° NNE 16:32:51 15° E
CZ-2C R/B 3.5 16:26:06 10° NE 16:30:24 26° E 16:34:40 10° SSE
Cosmos 2219 Rocket 4.0 16:29:58 10° N 16:32:18 12° NNE 16:33:20 12° NE
CZ-4B R/B 3.5 16:28:43 10° S 16:32:35 56° WSW 16:36:18 10° NNW
Cosmos 1500 3.3 16:31:17 10° NNW 16:35:02 78° W 16:38:45 10° S
Meteor 1-14 Rocket 4.3 16:29:29 10° N 16:35:21 69° ENE 16:41:16 10° SSE
Cosmos 44 Rocket 3.2 16:31:52 10° NNW 16:36:48 67° NE 16:41:33 10° SE
Meteor 2-16 Rocket 4.4 16:33:27 10° N 16:39:34 67° ENE 16:45:40 10° SSE
COSMOS 2406 3.9 16:35:47 10° SW 16:41:24 54° WNW 16:47:02 10° NNE
Cosmos 1814 Rocket 3.9 16:36:58 10° SSW 16:42:11 76° ESE 16:47:21 10° NNE
Cosmos 921 Rocket 3.6 16:39:34 10° SSE 16:43:24 35° E 16:45:57 18° NE
Cosmos 1570 Rocket 3.9 16:43:49 10° SSW 16:49:02 76° ESE 16:54:14 10° NNE
MOS 1-B Rocket 4.2 16:45:51 10° NNE 16:51:49 57° ESE 16:58:42 10° S
CZ-4B R/B 3.2 16:48:00 10° SE 16:53:13 53° ENE 16:58:23 10° N
Cosmos 2298 Rocket 4.0 16:50:11 10° NNW 16:55:28 60° ENE 17:00:44 10° SE
CZ-2D R/B 3.1 16:51:44 10° SSE 16:55:32 78° ENE 16:59:21 10° N
USA 267 3.2 16:50:26 17° NE 16:55:39 84° SE 17:02:12 10° SW
MOS 1-B 4.3 16:52:19 10° SSE 16:58:03 76° ENE 17:03:52 10° NNW
Cosmos 1939 Rocket 4.1 16:54:20 10° S 16:58:16 46° W 17:02:12 10° NNW
ATLAS CENTAUR R/B 3.2 16:50:10 10° WSW 16:58:54 53° NW 17:01:31 21° NE
Cosmos 1151 Rocket 3.1 16:57:04 10° S 17:01:24 82° W 17:05:48 10° N
Meteor 1-27 Rocket 4.3 16:56:50 10° SSE 17:01:38 31° E 17:04:00 22° NE
COSMO-SKYMED 1 2.9 16:59:10 20° NE 17:01:46 42° E 17:05:53 10° S
Cosmos 1633 Rocket 3.1 16:57:36 10° N 17:02:01 84° W 17:06:24 10° S
USA 306 3.0 16:57:54 10° NW 17:02:05 55° NNE 17:03:51 31° E
Cosmos 1782 4.2 16:59:52 10° SW 17:03:36 39° WNW 17:07:22 10° N
Cosmos 1666 3.0 17:00:03 10° NNW 17:03:45 65° W 17:07:25 10° S
APEX 3.3 17:00:28 10° S 17:03:59 40° ESE 17:04:23 38° E
Meteor 2-6 Rocket 4.1 16:58:45 10° S 17:04:26 72° E 17:09:59 10° NNE
Landsat 5 4.2 17:05:03 30° E 17:05:03 30° E 17:08:28 10° SSE
SJ-11-01 4.4 17:01:28 10° SSE 17:06:04 53° ENE 17:10:41 10° N
Cosmos 2360 Rocket 2.8 17:01:19 10° NNW 17:06:25 33° NE 17:08:17 27° E
ISS -0.8 17:04:56 10° W 17:07:16 17° SW 17:09:35 10° S
PAYLOAD B 4.3 17:02:32 10° SSE 17:08:09 85° WSW 17:13:47 10° NNW
Cosmos 1900 4.3 17:03:53 10° SW 17:08:45 83° NW 17:11:52 23° NNE
YAOGAN 1 4.3 17:11:21 18° NNE 17:11:21 18° NNE 17:12:45 10° N
Cosmos 2237 4.5 17:04:18 10° NNW 17:09:48 45° NE 17:13:44 18° ESE
Cosmos 1818 3.9 17:06:51 10° NW 17:12:19 71° WSW 17:17:44 10° SSE
CZ-2C R/B 3.6 17:14:46 10° SSW 17:17:15 15° S 17:19:13 11° SSE
Cosmos 2279 Rocket 4.2 17:11:16 10° SSW 17:17:28 75° W 17:23:41 10° N
ATLAS 5 CENTAUR R/B 1.7 17:12:37 10° NW 17:19:07 60° NE 17:19:39 51° E
Meteor 2-15 4.3 17:13:42 10° S 17:19:47 76° E 17:25:52 10° NNE
Cosmos 2266 Rocket 3.9 17:14:44 10° N 17:21:09 73° E 17:27:34 10° SSE
ERBS 4.4 17:19:24 10° NNW 17:20:46 16° N 17:20:46 16° N
USA 307 2.9 17:18:27 10° WNW 17:22:42 64° NNE 17:23:33 51° E
CZ-4C R/B 3.8 17:16:16 10° NW 17:23:24 53° WSW 17:31:34 10° SSE
SL-08 RB Rocket 3.7 17:20:15 10° SSE 17:24:45 55° ENE 17:29:14 10° N
Lacrosse 5 rocket 2.1 17:21:52 10° WNW 17:25:41 49° SW 17:28:57 15° SSE
SKYMED 3 4.4 17:23:34 26° NNE 17:25:58 75° ESE 17:30:17 10° S
NOSS 3-4 (A) 4.5 17:21:13 10° NNW 17:27:15 34° NNE 17:28:52 31° ENE
NOSS 3-4 (C) 4.5 17:21:19 10° NNW 17:27:21 34° NNE 17:28:56 31° NE
Cosmos 2208 Rocket 4.4 17:23:02 10° SSW 17:28:25 66° WNW 17:32:51 16° NNE
Cosmos 1933 Rocket 3.4 17:24:48 10° N 17:29:09 70° E 17:33:28 10° SSE
Cosmos 2322 Rocket 2.1 17:23:37 10° NNW 17:29:20 70° ENE 17:35:02 10° SE
ATLAS 2AS CENTAUR R/B 3.9 17:23:33 10° NW 17:29:34 25° NNE 17:31:18 23° NE
USA 234 3.4 17:23:07 10° SE 17:29:39 75° SW 17:36:13 10° NW
COSMOS 2428 4.2 17:25:52 10° N 17:28:43 19° NNE 17:28:43 19° NNE
Cosmos 2150 Rocket 4.1 17:25:50 10° NNW 17:31:02 77° WSW 17:36:16 10° SSE
Tiangong 3.9 17:29:55 10° S 17:30:10 11° S 17:30:10 11° S
Cosmos 1328 Rocket 4.2 17:27:08 10° SSW 17:31:30 57° WNW 17:35:55 10° N
Cosmos 1980 Rocket 4.4 17:27:28 10° NW 17:32:04 26° WSW 17:36:38 10° SSW
Cosmos 1470 Rocket 4.0 17:30:44 10° NNW 17:35:10 65° W 17:39:36 10° S
Cosmos 1544 3.2 17:31:40 10° NNW 17:35:17 73° W 17:38:54 10° S
Cosmos 1125 Rocket 3.7 17:32:01 10° NNW 17:37:16 74° WSW 17:42:31 10° SSE
Cosmos 1867 3.7 17:32:16 10° SSW 17:37:35 55° ESE 17:38:27 49° E
NOSS 3-3 (A) 4.2 17:32:32 10° S 17:37:49 42° ESE 17:38:22 41° ESE
NOSS 3-3 (C) 4.2 17:32:39 10° S 17:37:55 42° ESE 17:38:27 41° ESE
H-2A R/B 2.9 17:33:29 10° S 17:38:26 49° W 17:43:19 10° NNW
X-37B 2.4 17:36:15 10° SW 17:37:49 24° SSW 17:37:49 24° SSW
DEBRIS 4.1 17:36:51 10° SSW 17:38:35 28° SSE 17:38:35 28° SSE
Okean O Rocket 1.7 17:35:42 10° S 17:40:09 77° WSW 17:44:39 10° NNW
Meteor 1-10 Rocket 4.3 17:35:50 10° SSW 17:41:35 79° WNW 17:47:11 10° N
GEOS 3 Rocket 4.0 17:41:55 42° NE 17:41:55 42° NE 17:46:41 10° NNW
Meteor 1-11 Rocket 3.7 17:36:43 10° NNW 17:42:24 86° W 17:48:10 10° S
USA 32 3.9 17:38:17 10° S 17:43:29 73° E 17:46:22 27° NNE
USA 308 2.7 17:41:08 10° WNW 17:45:21 83° N 17:45:21 83° N
SL-16 R/B 2.5 17:44:16 10° NNW 17:49:53 65° WSW 17:55:29 10° SSE
SKYMED 2 3.9 17:47:47 29° N 17:49:53 63° WNW 17:54:10 10° SSW
ARGOS 3.5 17:44:52 10° S 17:50:14 67° WSW 17:55:38 10° NNW
Cosmos 2237 Rocket 4.4 17:48:41 10° N 17:49:04 11° N 17:49:04 11° N
Cosmos 2082 Rocket 3.9 17:47:55 10° WSW 17:52:48 29° NW 17:56:57 13° N
Cosmos 1241 Rocket 4.3 17:54:45 10° SSW 18:01:06 71° ESE 18:01:58 63° ENE
COSMOS 2455 4.5 17:56:29 10° W 18:01:32 27° NW 18:04:53 17° N
Feng Yun 1-1 Rocket 4.4 17:59:10 10° SSE 18:05:04 78° WSW 18:10:56 10° NNW
USA 305 3.7 18:05:29 10° WNW 18:08:52 50° W 18:08:52 50° W
Cosmos 2333 Rocket 3.1 18:04:19 10° NNW 18:08:04 37° N 18:08:04 37° N
CZ-2C R/B 3.5 18:06:50 15° N 18:10:55 46° WNW 18:15:50 10° SW
Cosmos 2219 Rocket 3.5 18:12:18 10° NNW 18:15:05 27° N 18:15:05 27° N
Aureole 3 Rocket 4.0 18:13:17 10° SSW 18:17:53 64° WNW 18:24:27 10° N
Nadezhda 2 Rocket 4.4 18:18:12 10° N 18:24:23 81° NNE 18:24:23 81° NNE
USA 267 3.8 18:37:47 46° N 18:38:23 47° NNW 18:44:36 10° W
Cosmos 2360 Rocket 3.1 18:45:11 10° NW 18:50:08 46° W 18:50:08 46° W
Cosmos 2322 Rocket 4.5 19:08:44 10° NW 19:12:48 20° W 19:16:51 10° SW
ATLAS 2AS CENTAUR R/B 4.1 19:15:03 10° NW 19:18:45 30° NNW 19:18:45 30° NNW
